EW0538 Weather Reports


time (UTC)temp
C
wind
direction
speed
KPH
gust
KPH
rain 1hr
cm
rain 24hr
cm
rain mn
cm
humidity
%
barometer
mb
20260906225325 30 212 4.8 22.5 0.00 0.00 0.00 23 1004.8
20260906224315 30 355 0.0 11.3 0.00 0.00 0.00 24 1004.7
20260906222222 30 291 0.0 11.3 0.00 0.00 0.00 24 1004.8
20260906221246 30 312 3.2 12.9 0.00 0.00 0.00 24 1004.8
20260906220259 30 356 1.6 16.1 0.00 0.00 0.00 23 1004.9
20260906215227 30 103 3.2 16.1 0.00 0.00 0.00 24 1005.1
20260906214239 30 358 1.6 11.3 0.00 0.00 0.00 24 1005.0
20260906212109 30 210 1.6 6.4 0.00 0.00 0.00 24 1005.6
20260906211118 28 307 3.2 12.9 0.00 0.00 0.00 24 1005.8
20260906203937 28 30 3.2 14.5 0.00 0.00 0.00 26 1006.1
20260906201835 28 349 4.8 16.1 0.00 0.00 0.00 25 1006.3
20260906200812 28 20 4.8 16.1 0.00 0.00 0.00 24 1006.5
20260906195816 28 330 3.2 14.5 0.00 0.00 0.00 24 1006.7
20260906194802 29 333 4.8 14.5 0.00 0.00 0.00 24 1006.7
20260906193804 30 12 1.6 9.7 0.00 0.00 0.00 21 1006.8
20260906192739 29 119 1.6 0.0 0.00 0.00 0.00 21 1006.9
20260906191803 29 47 1.6 14.5 0.00 0.00 0.00 22 1007.1
20260906190826 29 335 1.6 14.5 0.00 0.00 0.00 23 1007.2
20260906185842 29 9 0.0 9.7 0.00 0.00 0.00 22 1007.4
20260906184819 28 268 1.6 6.4 0.00 0.00 0.00 22 1007.6
20260906183831 28 20 0.0 1.6 0.00 0.00 0.00 24 1007.9
20260906182804 27 353 1.6 8.0 0.00 0.00 0.00 26 1008.2
20260906181830 27 294 0.0 8.0 0.00 0.00 0.00 25 1008.4
20260906180823 27 25 1.6 8.0 0.00 0.00 0.00 30 1008.6
20260906175758 26 352 0.0 4.8 0.00 0.00 0.00 30 1009.1
20260906174813 26 39 0.0 1.6 0.00 0.00 0.00 34 1009.2
20260906173819 26 122 0.0 0.0 0.00 0.00 0.00 35 1009.5
20260906172814 25 349 0.0 3.2 0.00 0.00 0.00 34 1009.9
20260906171814 24 122 0.0 0.0 0.00 0.00 0.00 35 1010.2
20260906170745 23 348 0.0 6.4 0.00 0.00 0.00 37 1010.4
20260906165723 23 296 0.0 6.4 0.00 0.00 0.00 37 1010.6
20260906164741 22 6 0.0 4.8 0.00 0.00 0.00 40 1010.8
20260906162551 21 158 0.0 0.0 0.00 0.00 0.00 44 1011.2
20260906161523 20 263 0.0 0.0 0.00 0.00 0.00 44 1011.5
20260906160459 20 281 0.0 0.0 0.00 0.00 0.00 45 1011.7
20260906155501 18 13 0.0 4.8 0.00 0.00 0.00 49 1011.8
20260906154450 17 357 0.0 0.0 0.00 0.00 0.00 52 1011.9
20260906153506 17 328 0.0 1.6 0.00 0.00 0.00 52 1012.1
20260906152440 17 106 0.0 0.0 0.00 0.00 0.00 52 1012.1
20260906151425 16 9 0.0 0.0 0.00 0.00 0.00 59 1012.4
20260906145301 16 358 0.0 1.6 0.00 0.00 0.00 59 1012.5
20260906144243 15 117 0.0 0.0 0.00 0.00 0.00 67 1012.6
20260906143233 13 117 0.0 1.6 0.00 0.00 0.00 72 1012.8
20260906142233 12 123 0.0 0.0 0.00 0.00 0.00 82 1012.9
20260906141216 10 123 0.0 0.0 0.00 0.00 0.00 86 1012.9
20260906140221 10 122 0.0 0.0 0.00 0.00 0.00 86 1013.0
20260906135240 9 145 0.0 0.0 0.00 0.00 0.00 89 1013.0
20260906134205 9 146 0.0 0.0 0.00 0.00 0.00 90 1012.9
20260906133213 8 145 0.0 0.0 0.00 0.00 0.00 90 1012.7
20260906131015 8 146 0.0 0.0 0.00 0.00 0.00 90 1012.5
20260906125953 8 145 0.0 0.0 0.00 0.00 0.00 89 1012.3
20260906123841 8 145 0.0 0.0 0.00 0.00 0.00 89 1012.3
20260906122815 8 145 0.0 0.0 0.00 0.00 0.00 89 1012.0
20260906121835 9 146 0.0 0.0 0.00 0.00 0.00 88 1012.0
20260906120856 9 146 0.0 0.0 0.00 0.00 0.00 88 1012.0
20260906114658 9 146 0.0 0.0 0.00 0.00 0.00 87 1012.0
20260906112453 9 146 0.0 0.0 0.00 0.00 0.00 86 1011.9
20260906110328 10 145 0.0 0.0 0.00 0.00 0.00 85 1011.9
20260906105316 10 146 0.0 0.0 0.00 0.00 0.00 86 1011.8
20260906104255 9 146 0.0 0.0 0.00 0.00 0.00 86 1011.6
20260906103251 9 145 0.0 0.0 0.00 0.00 0.00 87 1011.6
20260906102300 9 145 0.0 0.0 0.00 0.00 0.00 87 1011.7
20260906101255 9 145 0.0 0.0 0.00 0.00 0.00 87 1011.6
20260906100252 9 146 0.0 0.0 0.00 0.00 0.00 85 1011.6
20260906094136 9 146 0.0 0.0 0.00 0.00 0.00 86 1011.3
20260906093140 9 146 0.0 0.0 0.00 0.00 0.00 85 1011.2
20260906092143 10 124 0.0 0.0 0.00 0.00 0.00 86 1011.1
20260906091207 10 124 0.0 0.0 0.00 0.00 0.00 84 1011.0
20260906090728 10 124 0.0 0.0 0.00 0.00 0.00 84 1010.8
20260906085715 10 124 0.0 0.0 0.00 0.00 0.00 84 1010.8
20260906084704 10 146 0.0 0.0 0.00 0.00 0.00 85 1010.6
20260906083640 10 146 0.0 0.0 0.00 0.00 0.00 81 1010.6
20260906082639 10 146 0.0 0.0 0.00 0.00 0.00 83 1010.6
20260906081637 11 148 0.0 0.0 0.00 0.00 0.00 82 1010.5
20260906080615 11 129 0.0 0.0 0.00 0.00 0.00 83 1010.7
20260906075601 11 129 0.0 0.0 0.00 0.00 0.00 83 1010.6
20260906074607 11 129 0.0 0.0 0.00 0.00 0.00 82 1010.5
20260906072500 11 130 0.0 0.0 0.00 0.00 0.00 80 1010.4
20260906071454 12 129 0.0 0.0 0.00 0.00 0.00 79 1010.4
20260906070424 12 130 0.0 0.0 0.00 0.00 0.00 78 1010.4
20260906065356 12 130 0.0 0.0 0.00 0.00 0.00 78 1010.2
20260906064404 12 129 0.0 0.0 0.00 0.00 0.00 77 1010.3
20260906063410 12 129 0.0 0.0 0.00 0.00 0.00 78 1010.3
20260906062338 12 129 0.0 0.0 0.00 0.00 0.00 77 1010.2
20260906061308 12 130 0.0 0.0 0.00 0.00 0.00 77 1010.1
20260906055220 12 129 0.0 0.0 0.00 0.00 0.00 78 1010.0
20260906053045 13 129 0.0 0.0 0.00 0.00 0.00 74 1009.9
20260906052042 13 130 0.0 0.0 0.00 0.00 0.00 72 1009.8
20260906051008 13 129 0.0 0.0 0.00 0.00 0.00 70 1009.7
20260906045947 14 130 0.0 0.0 0.00 0.00 0.00 66 1009.6
20260906043819 15 130 0.0 0.0 0.00 0.00 0.00 62 1009.5
20260906042809 16 148 0.0 0.0 0.00 0.00 0.00 62 1009.4
20260906040713 17 148 0.0 0.0 0.00 0.00 0.00 55 1009.0
20260906035657 17 99 0.0 0.0 0.00 0.00 0.00 57 1009.0
20260906034633 17 99 0.0 0.0 0.00 0.00 0.00 54 1008.8
20260906033650 17 130 0.0 0.0 0.00 0.00 0.00 51 1008.6
20260906032630 18 148 0.0 0.0 0.00 0.00 0.00 53 1008.5
20260906031653 18 140 0.0 0.0 0.00 0.00 0.00 51 1008.5
20260906025511 19 140 0.0 0.0 0.00 0.00 0.00 50 1007.8
20260906023337 21 148 0.0 1.6 0.00 0.00 0.00 43 1007.3
20260906022307 21 117 0.0 0.0 0.00 0.00 0.00 41 1007.1
20260906021329 22 54 0.0 0.0 0.00 0.00 0.00 38 1006.8
20260906020341 23 54 0.0 0.0 0.00 0.00 0.00 33 1006.6
20260906015342 23 262 0.0 3.2 0.00 0.00 0.00 32 1006.4
20260906014340 24 240 0.0 3.2 0.00 0.00 0.00 33 1006.2
20260906012209 26 35 0.0 11.3 0.00 0.00 0.00 30 1006.2
20260906011207 26 264 0.0 6.4 0.00 0.00 0.00 30 1006.1
20260906010225 27 339 0.0 6.4 0.00 0.00 0.00 28 1006.1
20260906005214 27 5 0.0 8.0 0.00 0.00 0.00 27 1006.1
20260906004207 28 347 1.6 8.0 0.00 0.00 0.00 27 1006.2
20260906003207 28 342 1.6 9.7 0.00 0.00 0.00 27 1006.1
20260906002212 28 20 1.6 19.3 0.00 0.00 0.00 27 1006.1
20260906000128 27 354 4.8 19.3 0.00 0.00 0.00 27 1005.9
20260905235126 28 12 8.0 22.5 0.00 0.00 0.00 28 1005.9
20260905234100 28 338 8.0 22.5 0.00 0.00 0.00 27 1006.0
20260905233040 28 4 6.4 16.1 0.00 0.00 0.00 27 1005.8
20260905232059 28 357 6.4 17.7 0.00 0.00 0.00 26 1005.8
20260905231049 28 347 4.8 19.3 0.00 0.00 0.00 26 1005.7
20260905230111 28 338 4.8 19.3 0.00 0.00 0.00 27 1005.7